Time,TemperatureF,DewpointF,PressureIn,WindDirection,WindDirectionDegrees,WindSpeedMPH,WindSpeedGustMPH,Humidity,HourlyPrecipIn,Conditions,Clouds,dailyrainin,SoftwareType,DateUTC
2013-10-07 00:13:00,50.0,50.0,30.10,ENE,69,0.0,-999.0,100,-99.99,,,-99.99,,2013-10-07 04:13:00,
2013-10-07 00:24:00,50.0,50.0,30.09,ENE,69,0.0,-999.0,100,-99.99,,,-99.99,,2013-10-07 04:24:00,
2013-10-07 00:44:00,50.0,50.0,30.09,ENE,69,0.0,-999.0,100,-99.99,,,-99.99,,2013-10-07 04:44:00,
2013-10-07 00:53:00,51.0,51.0,30.07,WSW,256,0.0,-999.0,100,-99.99,,,-99.99,,2013-10-07 04:53:00,
2013-10-07 01:23:00,51.0,51.0,30.08,WSW,257,0.0,-999.0,100,-99.99,,,-99.99,,2013-10-07 05:23:00,
2013-10-07 01:43:00,51.0,51.0,30.07,WSW,257,0.0,-999.0,100,-99.99,,,-99.99,,2013-10-07 05:43:00,
2013-10-07 01:52:00,51.0,51.0,30.07,WSW,257,0.0,-999.0,100,-99.99,,,-99.99,,2013-10-07 05:52:00,
2013-10-07 02:22:00,51.0,51.0,30.05,West,274,0.0,-999.0,100,-99.99,,,-99.99,,2013-10-07 06:22:00,
2013-10-07 02:42:00,52.0,52.0,30.05,West,274,0.0,-999.0,100,-99.99,,,-99.99,,2013-10-07 06:42:00,
2013-10-07 02:53:00,52.0,52.0,30.04,West,274,0.0,-999.0,100,-99.99,,,-99.99,,2013-10-07 06:53:00,
2013-10-07 03:22:00,51.0,51.0,30.03,West,274,0.0,-999.0,100,-99.99,,,-99.99,,2013-10-07 07:22:00,
2013-10-07 03:42:00,51.0,51.0,30.03,West,274,0.0,-999.0,100,-99.99,,,-99.99,,2013-10-07 07:42:00,
2013-10-07 03:52:00,51.0,51.0,30.02,West,274,0.0,-999.0,100,-99.99,,,-99.99,,2013-10-07 07:52:00,
2013-10-07 04:21:00,51.0,51.0,30.01,West,274,0.0,-999.0,100,-99.99,,,-99.99,,2013-10-07 08:21:00,
2013-10-07 04:52:00,51.0,51.0,30.01,West,274,0.0,-999.0,100,-99.99,,,-99.99,,2013-10-07 08:52:00,
2013-10-07 05:22:00,51.0,51.0,30.01,West,274,0.0,-999.0,100,-99.99,,,-99.99,,2013-10-07 09:22:00,
2013-10-07 05:54:00,51.0,51.0,30.00,West,274,0.0,-999.0,100,-99.99,,,-99.99,,2013-10-07 09:54:00,
2013-10-07 06:23:00,51.0,51.0,29.99,West,274,0.0,-999.0,100,-99.99,,,-99.99,,2013-10-07 10:23:00,
2013-10-07 06:43:00,52.0,52.0,29.99,West,274,0.0,-999.0,100,-99.99,,,-99.99,,2013-10-07 10:43:00,
2013-10-07 06:53:00,51.0,51.0,29.99,West,274,0.0,-999.0,100,-99.99,,,-99.99,,2013-10-07 10:53:00,
2013-10-07 07:22:00,52.0,52.0,29.97,NE,48,0.0,-999.0,100,-99.99,,,-99.99,,2013-10-07 11:22:00,
2013-10-07 07:42:00,53.0,53.0,29.96,North,359,0.0,-999.0,100,-99.99,,,-99.99,,2013-10-07 11:42:00,
2013-10-07 07:52:00,55.0,55.0,29.96,WSW,247,0.0,-999.0,100,-99.99,,,-99.99,,2013-10-07 11:52:00,
2013-10-07 08:22:00,56.0,56.0,29.95,NNW,339,0.0,-999.0,100,-99.99,,,-99.99,,2013-10-07 12:22:00,
2013-10-07 08:43:00,56.0,56.0,29.95,NNE,27,0.0,-999.0,100,-99.99,,,-99.99,,2013-10-07 12:43:00,
2013-10-07 08:52:00,57.0,57.0,29.95,NNW,329,0.0,-999.0,100,-99.99,,,-99.99,,2013-10-07 12:52:00,
2013-10-07 09:11:00,57.0,57.0,29.95,NNW,330,0.0,-999.0,100,-99.99,,,-99.99,,2013-10-07 13:11:00,
2013-10-07 09:22:00,57.0,57.0,29.94,North,360,0.0,-999.0,100,-99.99,,,-99.99,,2013-10-07 13:22:00,
2013-10-07 09:42:00,57.0,57.0,29.97,North,360,0.0,-999.0,100,-99.99,,,-99.99,,2013-10-07 13:42:00,
2013-10-07 09:52:00,57.0,57.0,29.96,ENE,71,0.0,-999.0,100,-99.99,,,-99.99,,2013-10-07 13:52:00,
2013-10-07 10:11:00,58.0,58.0,29.95,NNE,17,0.0,-999.0,100,-99.99,,,-99.99,,2013-10-07 14:11:00,
2013-10-07 10:22:00,59.0,59.0,29.94,East,86,1.0,-999.0,100,-99.99,,,-99.99,,2013-10-07 14:22:00,
2013-10-07 10:42:00,59.0,59.0,29.94,ENE,66,1.0,-999.0,100,-99.99,,,-99.99,,2013-10-07 14:42:00,
2013-10-07 10:52:00,59.0,59.0,29.94,WNW,292,0.0,-999.0,100,-99.99,,,-99.99,,2013-10-07 14:52:00,
2013-10-07 11:22:00,61.0,61.0,29.92,NE,37,0.0,-999.0,100,-99.99,,,-99.99,,2013-10-07 15:22:00,
2013-10-07 11:43:00,61.0,61.0,29.91,NNE,16,0.0,-999.0,100,-99.99,,,-99.99,,2013-10-07 15:43:00,
2013-10-07 11:53:00,62.0,62.0,29.90,NE,41,1.0,-999.0,100,-99.99,,,-99.99,,2013-10-07 15:53:00,
2013-10-07 12:23:00,64.0,64.0,29.88,SSE,147,1.0,-999.0,100,-99.99,,,-99.99,,2013-10-07 16:23:00,
2013-10-07 12:53:00,66.0,66.0,29.85,SSE,167,0.0,-999.0,100,-99.99,,,-99.99,,2013-10-07 16:53:00,
2013-10-07 13:22:00,67.0,67.0,29.82,SE,144,1.0,-999.0,100,-99.99,,,-99.99,,2013-10-07 17:22:00,
2013-10-07 13:53:00,67.0,67.0,29.80,NNW,339,1.0,-999.0,100,-99.99,,,-99.99,,2013-10-07 17:53:00,
2013-10-07 14:22:00,68.0,68.0,29.78,ESE,123,1.0,-999.0,100,-99.99,,,-99.99,,2013-10-07 18:22:00,
2013-10-07 14:52:00,69.0,67.0,29.75,WNW,296,1.0,-999.0,92,-99.99,,,-99.99,,2013-10-07 18:52:00,
2013-10-07 15:22:00,70.0,67.0,29.73,NW,313,1.0,-999.0,89,-99.99,,,-99.99,,2013-10-07 19:22:00,
2013-10-07 15:42:00,70.0,66.0,29.73,East,83,1.0,-999.0,88,-99.99,,,-99.99,,2013-10-07 19:42:00,
2013-10-07 15:53:00,70.0,67.0,29.72,West,275,1.0,-999.0,89,-99.99,,,-99.99,,2013-10-07 19:53:00,
2013-10-07 16:22:00,69.0,65.0,29.72,NNE,14,1.0,-999.0,88,-99.99,,,-99.99,,2013-10-07 20:22:00,
2013-10-07 16:43:00,69.0,66.0,29.72,North,349,1.0,-999.0,89,-99.99,,,-99.99,,2013-10-07 20:43:00,
2013-10-07 16:52:00,68.0,66.0,29.72,SSE,157,1.0,-999.0,92,-99.99,,,-99.99,,2013-10-07 20:52:00,
2013-10-07 17:12:00,67.0,66.0,29.71,SE,143,2.0,-999.0,96,-99.99,,,-99.99,,2013-10-07 21:12:00,
2013-10-07 17:23:00,67.0,66.0,29.71,SE,143,2.0,-999.0,96,-99.99,,,-99.99,,2013-10-07 21:23:00,
2013-10-07 17:34:00,67.0,66.0,29.71,SE,143,2.0,-999.0,96,-99.99,,,-99.99,,2013-10-07 21:34:00,
2013-10-07 17:43:00,67.0,66.0,29.71,SE,143,2.0,-999.0,96,-99.99,,,-99.99,,2013-10-07 21:43:00,
2013-10-07 21:52:00,55.0,53.0,29.88,NW,326,0.0,-999.0,93,-99.99,,,-99.99,,2013-10-08 01:52:00,
2013-10-07 22:22:00,55.0,54.0,29.88,NW,306,0.0,-999.0,95,-99.99,,,-99.99,,2013-10-08 02:22:00,
2013-10-07 22:52:00,55.0,53.0,29.90,NNW,347,1.0,-999.0,92,-99.99,,,-99.99,,2013-10-08 02:52:00,
2013-10-07 23:22:00,54.0,50.0,29.91,NNW,329,0.0,-999.0,86,-99.99,,,-99.99,,2013-10-08 03:22:00,
2013-10-07 23:55:00,53.0,51.0,29.91,WNW,291,0.0,-999.0,93,-99.99,,,-99.99,,2013-10-08 03:55:00,